Flag for India Weather past 2 weeks in Dharamshala, Himachal Pradesh, India

Now
88 °F

Fog.


Feels Like: 105 °F
Forecast: 68 / 84 °F
Wind: 5 mph from Southeast

Location: Amritsar Airport

Current Time: Aug 2, 2014 at 10:56:11 AM

Latest Report: Aug 2, 2014 at 9:30 AM


Visibility: 3 mi

Pressure: 29.53 "Hg

Humidity: 79%

Dew point: 81 °F

Location of DharamshalaLocation

Historic Weather in Dharamshala — Graph

°F

Dharamshala temperature yesterday

Maximum temperature yesterday: 91 °F (at 12:30 PM)
Minimum temperature yesterday: 82 °F (at 3:00 AM)
Average temperature yesterday: 86 °F

Past Weeks' High & Low Weather Summary

 TemperatureHumidityPressure
High97 °F (Jul 22, 1:30 PM)100% (Jul 21, 4:00 AM)29.68 "Hg (Jul 21, 4:00 AM)
Low70 °F (Jul 26, 6:00 PM)56% (Jul 20, 3:30 PM)29.36 "Hg (Jul 18, 5:00 PM)
Average86 °F84%29.54 "Hg
* Reported Jul 18 8:30 AM — Aug 2 9:00 AM, Dharamshala, Weather by CustomWeather, © 2014

Note: Actual official high and low records may vary slightly from our data, if they occured in-between our weather recording intervals... More about our weather records

Advertising

Dharamshala weather history for previous 24 hours

 ConditionsComfort  
Time TempWeatherWind HumidityBarometerVisibility
9:00 AM
Aug 2
88 °FFog.6 mph79%29.53 "Hg3 mi
8:00 AM86 °FFog.5 mph84%29.53 "Hg2 mi
7:30 AM84 °FFog.3 mph94%29.53 "Hg1 mi
7:00 AM82 °FFog.No wind100%29.53 "Hg1 mi
6:30 AM82 °FFog.No wind100%29.53 "Hg1 mi
6:00 AM82 °FFog.No wind100%29.50 "Hg1 mi
5:00 AM81 °FFog.3 mph100%29.50 "Hg1 mi
4:30 AM82 °FFog.3 mph100%29.50 "Hg1 mi
2:30 AM84 °FFog.2 mph100%29.53 "Hg1 mi
2:00 AM84 °FFog.No wind100%29.53 "Hg1 mi
1:30 AM84 °FFog.No wind100%29.53 "Hg1 mi
1:00 AM84 °FFog.No wind100%29.53 "Hg1 mi
12:30 AM84 °FFog.No wind100%29.53 "Hg2 mi
12:00 AM86 °FFog.No wind94%29.53 "Hg2 mi
11:30 PM
Aug 1
86 °FFog.No wind94%29.53 "Hg2 mi
10:30 PM86 °FFog.No wind94%29.53 "Hg2 mi
10:00 PM86 °FFog.No wind94%29.53 "Hg2 mi
8:00 PM88 °FFog.3 mph84%29.47 "Hg3 mi
7:30 PM90 °FScattered clouds.7 mph75%29.47 "Hg3 mi
7:00 PM90 °FScattered clouds.5 mph75%29.45 "Hg3 mi
6:30 PM90 °FScattered clouds.5 mph71%29.45 "Hg3 mi
6:00 PM90 °FScattered clouds.5 mph75%29.45 "Hg3 mi
5:30 PM91 °FScattered clouds.1 mph71%29.47 "Hg3 mi
5:00 PM91 °FScattered clouds.3 mph71%29.47 "Hg3 mi
4:30 PM91 °FScattered clouds.3 mph71%29.50 "Hg3 mi
3:30 PM91 °FFog.2 mph63%29.50 "Hg3 mi
2:30 PM91 °FFog.No wind67%29.53 "Hg3 mi
1:30 PM88 °FFog.6 mph70%29.56 "Hg3 mi
1:00 PM86 °FFog.7 mph75%29.56 "Hg3 mi
12:30 PM91 °FFog.9 mph67%29.59 "Hg3 mi
12:00 PM84 °FThunderstorms. More clouds than sun.6 mph89%29.62 "Hg2 mi
11:30 AM82 °FThunderstorms. More clouds than sun.15 mph94%29.62 "Hg2 mi
10:30 AM90 °FThunderstorms. More clouds than sun.No wind84%29.62 "Hg1 mi
10:00 AM88 °FFog.No wind84%29.62 "Hg2 mi
Weather by CustomWeather, © 2014

See weather overviewHow to use our weather pages